INTELSAT 20 (IS-20)

Last updated on Fri Oct 11 2024 00:02:39 GMT+0000 (Coordinated Universal Time)

1 38740U 12043A 24284.56716204 -.00000020 00000+0 00000+0 0 9994 2 38740 0.0106 170.8916 0002014 11.7988 109.6491 1.00270816 44580
UTC large
Height (km)
Speed (km/s)
/
Latitude / Longitude
Inclination (degrees)
Orbital Period (minutes)
Azimuth
Elevation
Range (km)
Doppler Factor

Next 0 passes for location: London (51.5072 / 0.1276)

Sorry there are no passes over London.